Tracking 31027 objects as of 19-Jul-2025
HD Live streaming from Space Station
objects crossing your sky now

CZ-3B DEB

Track CZ-3B DEB now!


NORAD ID: 40841
Int'l Code: 2011-077W
Perigee: 914.7 km
Apogee: 40,720.0 km
Inclination: 27.1 °
Period: 743.6 minutes
Semi major axis: 27188 km
RCS: Unknown
Launch date: December 19, 2011
Source: People's Republic of China (PRC)
Launch site: Xichang Space Center, China (XSC)

Note: This is SATELLITE DEBRIS
Your satellite tracking list
GALASSIA
Track 1 satellite(s)




NASA's NSSDC Master Catalog

Two Line Element Set (TLE):
1 40841U 11077W   25190.69367922 -.00000257  00000-0 -29698-2 0  9996
2 40841  27.0768  95.7633 7320298 199.6824 101.4403  1.93655313 81280
Source of the keplerian elements: AFSPC